OSLO/GARDERMOEN current weather conditions

sailwx.info

Wind from 200 at 8 knots

Air temperature 1.0° C
Visibility: greater than 5.4 NM
Dewpoint -0.0° C

Last reported at 2019-Dec-08 20:50 UTC.
Time now 2019-Dec-08 21:54 UTC

Location: N 60°12' E 011°05'.
View on Google Maps.

See reports from other nearby stations

  
Tides and Currents Weather Stations Pressure Air Temp Water Temp Dewpoint Dewpoint Depression Visibility Wind Speed Wind Dir Waves Ship Positions
date/time (UTC)wind fromknots sea level pressurealtimeterstation pressurevisibilityair tempwater tempwave heightnotes
2019-Dec-08 20:50 200 8 5.4 1.0
2019-Dec-08 20:20 200 7 5.4 1.0
2019-Dec-08 19:50 210 5 5.4-0.0
2019-Dec-08 19:20 190 4 5.4-0.0
2019-Dec-08 18:50 190 5 5.4-0.0
2019-Dec-08 18:20 190 6 5.4-0.0
2019-Dec-08 17:50 200 7 5.4-0.0
2019-Dec-08 17:20 200 8 5.4-1.0
2019-Dec-08 16:50 200 14 5.4-1.0
2019-Dec-08 16:20 190 9 5.4-1.0
2019-Dec-08 15:50 5.4-0.0
2019-Dec-08 15:20 5.4-1.0
2019-Dec-08 14:50 340 4 5.4-0.0
2019-Dec-08 14:20 5.4-1.0
2019-Dec-08 13:50 5.4-1.0
2019-Dec-08 13:20 250 2 1.1-1.0 Light drizzle snow.
2019-Dec-08 12:50 320 2 1.4-1.0 Light freezing drizzle. Mist.
2019-Dec-08 12:20 320 2 1.3-1.0 Light freezing drizzle. Mist.
2019-Dec-08 11:50 2.3-1.0 Light freezing drizzle. Mist.
2019-Dec-08 11:20 020 6 2.7-1.0 Light drizzle snow. Mist.
2019-Dec-08 10:50 020 6 1.2-2.0 Light freezing drizzle.
2019-Dec-08 10:20 020 6 2.2-2.0 Light snow.
2019-Dec-08 09:50 020 6 1.9-2.0 Snow.
2019-Dec-08 09:20 030 6 0.8-2.0 Snow.
2019-Dec-08 08:50 040 5 0.8-3.0 Snow.
2019-Dec-08 08:20 020 7 0.7-3.0 Snow.
2019-Dec-08 07:50 020 6 0.9-3.0 Snow.
2019-Dec-08 07:20 040 5 1.0-4.0 Snow.
2019-Dec-08 06:50 080 5 0.9-4.0 Snow.
2019-Dec-08 06:20 100 4 0.8-4.0 Snow.
2019-Dec-08 05:50 100 6 1.5-4.0 Light snow. Mist.
2019-Dec-08 05:20 2.2-4.0 Light snow.
2019-Dec-08 04:50 5.4-5.0 Light snow.
2019-Dec-08 04:20 5.4-5.0
2019-Dec-08 03:50 5.4-5.0
2019-Dec-08 03:20 5.4-6.0
2019-Dec-08 02:50 5.4-6.0
2019-Dec-08 01:50 5.4-6.0
2019-Dec-08 01:20 5.4-6.0
2019-Dec-08 00:50 5.4-6.0
2019-Dec-08 00:20 5.4-5.0
2019-Dec-07 23:50 030 2 5.4-6.0
2019-Dec-07 23:20 5.4-4.0
2019-Dec-07 22:50 5.4-4.0
2019-Dec-07 22:20 5.4-4.0
2019-Dec-07 21:50 5.4-4.0
2019-Dec-07 21:20 5.4-4.0
2019-Dec-07 20:50 5.4-4.0
2019-Dec-07 20:20 5.4-3.0
2019-Dec-07 19:50 5.4-3.0
2019-Dec-07 19:20 5.4-3.0
2019-Dec-07 18:50 5.4-3.0
2019-Dec-07 18:20 020 2 5.4-3.0
2019-Dec-07 17:50 5.4-3.0
2019-Dec-07 17:20 350 2 5.4-2.0
2019-Dec-07 16:50 5.4-0.0
2019-Dec-07 16:20 5.4 1.0
2019-Dec-07 15:50 320 4 5.4-1.0
2019-Dec-07 15:20 340 2 5.4-1.0
2019-Dec-07 14:50 330 4 5.4-0.0
2019-Dec-07 14:20 310 5 5.4-0.0
2019-Dec-07 13:50 5.4 1.0
2019-Dec-07 13:20 5.4 1.0
2019-Dec-07 12:50 5.4 1.0
2019-Dec-07 12:20 5.4-0.0
2019-Dec-07 11:50 5.4 1.0
2019-Dec-07 11:20 320 2 5.4 1.0
2019-Dec-07 10:50 290 2 5.4-0.0
2019-Dec-07 10:20 310 2 5.4-0.0
2019-Dec-07 09:50 300 2 5.4-0.0
2019-Dec-07 09:20 300 4 5.4-0.0 Fog in the vicinity.
2019-Dec-07 08:50 320 2 5.4-0.0 Fog in the vicinity.
2019-Dec-07 08:20 330 4 5.4-0.0 Fog in the vicinity.
2019-Dec-07 07:50 320 4 5.4-0.0 Patches of fog.
2019-Dec-07 07:20 290 4 5.4-0.0 Patches of fog.
2019-Dec-07 06:50 270 2 5.4-0.0
2019-Dec-07 06:20 4.9-0.0
2019-Dec-07 05:50 040 5 5.4 1.0
2019-Dec-07 05:20 360 4 5.4 1.0 Light rain.
2019-Dec-07 04:50 010 2 5.4-0.0 Light rain.
2019-Dec-07 04:20 330 4 4.9-0.0 Light rain.
2019-Dec-07 03:50 330 2 4.9-0.0
2019-Dec-07 03:20 010 2 4.9-0.0 Showers in the vicinity.
2019-Dec-07 02:50 330 4 5.4-0.0 Light rain.
2019-Dec-07 02:20 3.8-0.0 Light freezing rain.
2019-Dec-07 01:50 4.3-0.0 Light rain.
2019-Dec-07 01:20 310 2 4.3-0.0 Patches of fog.
2019-Dec-07 00:50 340 2 0.4-0.0 Fog.
2019-Dec-07 00:20 020 2 1.2-0.0 Patches of fog.
2019-Dec-06 23:50 040 2 0.5-0.0 Fog.
2019-Dec-06 23:20 360 2 0.5-0.0 Fog.
2019-Dec-06 22:50 340 2 -1.0 Fog.
2019-Dec-06 22:20 010 2 3.2-0.0 Patches of fog.
2019-Dec-06 21:50 360 2 0.7-0.0 Patches of fog.
2019-Dec-06 21:20 360 1 0.6-0.0 Patches of fog.